RH
49 45 44 39 32 28 25 33 22 15 11 9 9 12 24 94 98 100 100 80 30 13 6 6 6 7 8 9 10 8 7 8 9 9 8 7 6 6 6 7 8 10 11
49 41 36 37 42 32 24 39 29 22 17 14 12 11 34 99 99 98 95 75 27 11 7 6 7 8 9 9 10 11 12 12 11 10 8 7 7 7 8 9 10 11 12
60 36 42 55 58 47 30 38 31 29 23 23 19 22 51 92 99 99 99 49 23 10 8 8 9 9 9 10 12 14 13 12 10 10 9 8 8 9 10 10 12 11 11
57 48 43 46 53 66 35 29 28 51 38 27 17 22 37 67 94 98 92 64 20 9 9 9 11 10 10 12 13 15 13 12 11 10 9 8 8 10 12 12 12 12 14
64 53 50 51 57 64 40 31 32 38 42 42 23 25 50 83 99 99 97 30 14 10 9 12 12 11 11 13 14 15 14 12 11 10 9 9 9 11 12 14 14 15 17
59 66 60 54 56 66 43 37 39 48 47 43 25 37 61 98 89 100 81 25 14 10 10 14 13 12 12 15 15 15 14 12 10 9 9 9 10 10 15 15 17 17 21
66 70 95 98 78 76 45 36 44 56 49 36 44 42 88 99 97 100 76 23 12 12 14 15 13 14 15 17 16 16 14 10 9 9 10 11 11 14 15 15 21 18 25
72 66 82 98 95 72 35 40 53 53 46 55 84 76 100 100 100 100 30 20 18 20 18 15 14 16 18 18 17 15 11 10 12 12 14 14 16 16 16 15 27 29 31
87 70 78 95 77 49 38 42 48 59 65 94 98 98 100 99 100 86 40 22 29 24 18 17 18 19 19 19 16 12 14 15 13 16 17 18 17 15 20 28 32 29 18
100 99 82 81 64 59 48 50 55 80 97 89 96 100 99 100 99 94 45 26 29 23 20 21 21 21 21 18 13 14 16 16 18 19 20 18 20 26 32 28 19 14 11
99 94 87 93 83 44 42 59 68 84 95 100 100 100 99 100 92 42 39 34 29 25 24 24 23 22 20 15 15 16 20 20 21 19 20 24 30 33 22 17 14 12 12
98 98 97 95 68 35 48 68 91 94 99 99 79 98 99 99 38 63 44 35 31 27 28 26 24 22 16 16 17 22 22 22 20 21 27 34 30 18 16 13 12 14 12
98 100 98 85 39 44 91 96 99 98 100 100 99 97 99 92 45 42 42 35 33 33 29 27 24 19 18 19 23 25 23 24 26 32 35 25 17 15 14 15 14 11 11
100 99 95 51 88 99 98 99 100 99 99 99 98 97 97 70 46 49 44 40 38 36 32 28 21 20 23 25 26 26 29 34 38 33 21 16 15 16 16 14 13 13 9
98 100 98 99 100 99 100 96 99 99 99 99 96 98 92 70 55 50 52 52 44 33 27 22 21 26 27 27 30 33 38 38 27 21 17 16 18 15 15 15 11 7 5
64 96 100 99 99 99 100 99 100 99 98 98 98 98 95 76 64 72 63 48 36 29 24 23 28 29 28 27 29 39 34 24 21 17 19 17 14 13 10 9 6 5 3
77 100 99 99 100 100 100 100 99 98 97 95 93 97 97 97 97 81 54 39 30 28 27 28 30 28 29 35 41 31 24 21 20 20 17 15 13 12 11 7 5 4 4
99 98 98 99 99 99 99 100 99 100 100 97 97 96 97 88 66 59 44 42 65 36 32 31 30 32 38 41 26 24 21 22 18 18 17 16 16 14 10 5 4 4 8
98 97 98 98 98 98 99 100 99 100 99 98 98 97 96 73 58 47 34 31 32 34 33 31 34 43 36 26 25 24 22 20 20 18 18 18 17 13 6 2 4 9 9
98 98 98 99 98 98 98 99 98 99 99 98 96 96 86 67 43 34 31 35 36 34 33 38 46 32 26 26 26 21 22 22 20 20 21 20 13 5 3 5 9 9 7
99 99 98 98 97 97 99 98 98 97 96 98 98 97 87 57 36 36 40 38 37 36 43 47 30 28 27 26 22 24 24 21 22 23 23 23 15 5 7 11 10 8 6
100 100 99 98 99 97 97 98 98 98 98 98 95 91 77 52 41 42 41 39 41 46 46 29 28 28 28 25 27 26 23 23 26 26 29 27 14 10 14 13 10 7 6
97 99 98 98 98 99 98 98 98 97 96 95 57 42 41 44 45 44 42 43 48 46 28 29 30 30 28 29 28 26 25 31 32 33 32 28 20 14 16 13 10 9 6
96 98 98 98 98 100 94 93 77 63 42 37 39 45 48 50 48 43 43 50 46 28 29 31 31 30 30 30 29 28 33 39 40 39 36 35 32 21 20 15 14 12 8
75 98 100 100 93 96 88 61 56 39 38 44 49 51 53 53 46 46 52 50 30 29 32 33 31 33 33 32 32 35 44 45 43 41 40 40 41 30 25 17 15 14 15
68 67 73 78 70 61 59 48 38 41 48 51 54 57 58 50 45 50 53 34 30 32 34 34 36 35 38 40 37 45 49 46 43 42 38 46 50 38 29 19 16 17 15
Wind_Speed
25 22 28 31 31 34 36 35 41 45 46 45 49 55 46 48 38 38 41 33 31 28 28 25 22 20 18 17 16 16 15 15 14 13 13 12 12 11 13 11 11 12 13
24 23 32 30 32 31 34 37 40 42 44 44 43 43 42 46 48 39 32 28 30 29 28 26 23 21 19 18 18 17 16 15 14 13 13 12 12 12 13 12 12 13 14
31 31 29 30 31 30 31 35 39 39 40 41 39 40 41 44 48 42 28 23 28 29 28 26 23 21 19 19 18 16 16 15 14 13 13 12 12 11 11 12 13 14 15
39 42 40 36 36 33 31 35 38 34 37 37 39 42 44 46 46 45 36 30 29 30 28 25 23 21 20 19 18 16 15 14 13 13 13 13 12 11 10 11 12 14 15
45 54 56 53 45 36 34 35 33 33 36 36 36 42 44 42 42 44 41 32 32 31 27 25 23 21 19 18 17 16 13 13 11 11 11 12 12 10 10 9 11 15 16
51 61 57 43 35 31 35 33 29 30 35 33 36 40 38 49 47 44 37 29 28 28 27 24 22 21 19 18 16 14 11 11 10 10 10 11 11 13 11 13 13 16 18
56 42 38 20 20 30 34 26 28 30 31 32 33 38 37 45 40 40 36 28 27 26 25 23 22 20 19 17 15 13 10 10 9 9 10 11 12 11 15 16 13 16 18
55 34 24 16 21 26 26 24 27 28 31 31 31 33 36 38 32 42 31 27 26 26 25 23 22 20 18 16 15 13 11 10 9 9 9 11 11 13 16 19 16 19 20
32 18 13 14 19 20 20 19 24 27 31 29 26 33 42 38 45 43 30 27 27 26 25 24 21 19 18 16 14 12 11 8 10 7 9 9 12 16 17 19 19 23 25
18 12 7 13 14 17 16 19 24 22 26 24 26 38 37 35 48 41 34 30 28 27 24 22 21 19 16 14 12 11 8 8 8 8 8 11 14 16 19 18 22 26 30
13 7 10 9 13 14 19 20 22 22 23 27 29 40 42 39 37 33 31 29 27 25 24 22 19 17 14 12 11 10 7 6 7 9 10 13 16 19 18 21 24 28 33
10 8 5 10 12 18 20 19 16 21 25 33 27 43 40 42 31 32 30 28 27 25 22 19 17 15 13 11 11 6 5 7 8 10 13 16 17 18 21 24 29 32 37
7 4 7 9 16 18 14 11 15 20 30 31 38 41 41 41 31 28 28 26 25 21 19 17 15 12 11 12 8 5 6 7 9 12 14 17 20 22 25 29 33 37 41
3 5 8 15 15 13 8 9 13 25 37 38 42 34 34 35 34 32 28 25 22 19 17 16 14 13 11 10 6 4 5 8 11 14 16 19 21 25 29 34 37 41 44
7 11 13 14 13 11 9 10 14 39 37 37 49 47 43 40 36 32 28 23 20 19 16 13 11 11 11 5 3 4 7 10 12 13 17 21 25 29 33 36 40 43 44
7 12 13 16 13 10 10 10 9 22 35 39 38 39 40 40 35 28 16 17 16 15 12 10 11 8 4 2 5 7 8 10 13 17 21 25 29 33 37 40 43 44 45
7 13 11 7 6 6 10 16 14 16 24 24 30 30 34 37 33 23 17 17 16 12 9 9 8 4 2 3 6 7 9 12 16 20 24 29 34 37 40 42 43 43 43
13 10 12 9 14 14 20 14 14 27 22 18 27 32 27 25 24 20 19 17 13 15 12 8 6 3 4 5 5 8 11 15 18 22 28 33 37 41 44 43 42 41 42
8 3 4 3 4 14 21 21 17 25 23 25 31 30 25 21 21 20 19 16 13 10 8 8 6 6 6 3 5 9 13 17 22 26 31 35 39 43 45 43 41 40 41
7 4 1 6 7 15 20 28 29 26 30 31 29 26 25 21 18 17 14 13 12 10 9 7 7 4 2 4 7 11 15 20 25 29 34 39 42 43 42 41 42 43 43
8 3 4 12 16 18 23 29 28 30 29 26 24 25 22 20 17 16 15 13 12 11 10 8 5 2 4 7 10 14 18 22 26 30 35 40 43 42 41 41 42 42 42
16 17 16 20 25 24 26 28 29 27 26 27 26 25 23 20 18 16 14 12 11 9 7 5 3 4 6 8 12 16 21 25 28 32 36 41 41 39 39 39 40 39 37
20 23 21 23 23 25 24 23 22 23 23 23 21 21 19 18 17 16 14 12 10 8 6 4 3 5 7 11 16 20 23 27 29 34 38 42 42 41 40 39 38 37 36
12 14 13 11 15 16 17 14 15 16 18 19 18 17 16 13 13 12 12 10 8 6 4 4 5 7 11 16 19 22 25 30 34 37 40 42 42 41 40 39 38 39 38
7 10 10 7 7 8 10 15 16 16 16 16 16 14 12 11 11 10 9 8 7 5 5 6 8 11 14 18 22 25 29 33 36 37 40 42 42 41 41 41 40 39 38
8 10 12 11 11 12 13 15 16 15 14 12 11 10 9 9 9 9 8 7 6 6 8 9 12 15 18 21 25 29 32 35 37 39 42 42 42 43 42 42 40 39 37
Wind_Direction
287 296 297 291 287 271 265 244 242 246 246 241 238 241 249 239 241 208 208 216 224 222 221 220 217 218 221 222 221 221 220 225 226 232 238 243 248 257 265 269 278 285 290
298 296 313 293 281 276 266 254 245 245 248 247 241 239 244 235 236 225 211 204 221 222 220 218 214 215 215 217 220 217 221 225 229 231 234 241 249 255 265 271 279 286 290
294 303 314 314 291 276 263 253 251 251 248 247 240 236 234 237 232 231 201 203 219 220 220 216 213 213 213 215 219 220 224 224 228 233 237 242 244 253 263 277 285 289 293
289 299 301 300 304 285 263 253 250 244 248 244 236 232 236 233 228 218 196 203 216 220 217 213 211 211 212 215 221 220 223 229 232 239 245 247 248 257 268 275 285 290 298
288 299 292 287 287 279 256 248 247 243 240 241 231 226 228 229 221 222 188 201 205 215 213 211 210 210 212 217 219 221 221 230 237 247 257 263 269 272 276 278 285 295 305
300 294 297 285 268 257 246 242 241 236 236 232 221 223 214 223 228 220 182 195 206 209 210 209 209 209 211 215 219 221 224 235 241 252 263 272 280 286 292 295 301 303 306
318 301 301 279 235 238 236 236 232 227 230 220 217 222 216 217 231 219 182 188 203 206 207 207 207 208 209 211 216 217 218 230 244 259 265 271 277 284 289 287 298 300 301
312 299 294 255 224 235 228 229 226 217 217 211 213 217 211 203 185 195 180 181 197 202 203 205 206 205 206 209 212 214 214 225 236 246 261 272 286 296 293 296 307 304 305
306 296 285 220 233 227 217 225 216 210 209 203 211 216 209 209 193 171 192 182 192 196 199 202 203 204 205 208 211 215 216 224 246 253 269 289 300 294 298 300 309 307 306
321 297 232 229 225 212 204 200 203 212 205 203 216 212 216 212 200 173 184 185 193 191 194 198 199 201 206 209 213 222 214 231 252 274 296 295 296 303 299 310 316 313 315
327 303 204 241 202 189 187 190 201 213 198 200 212 201 184 190 172 170 175 182 186 189 190 193 196 199 206 208 216 218 221 258 278 287 298 311 304 297 311 321 316 317 318
321 306 217 218 193 181 181 188 200 195 199 198 219 194 173 195 164 170 173 178 183 189 186 189 193 198 205 207 218 213 253 266 290 308 310 302 301 312 323 318 317 320 319
322 285 235 183 168 173 170 172 189 198 195 207 195 163 164 164 168 167 168 175 181 181 184 185 190 197 202 212 208 219 252 288 305 308 305 309 317 322 322 321 322 321 322
58 126 167 161 145 148 157 170 191 201 194 196 179 166 158 161 167 165 165 167 172 176 184 186 188 196 203 209 206 240 291 313 311 307 319 315 320 323 324 324 323 323 322
112 128 129 139 140 143 151 124 162 192 190 185 168 164 162 163 165 165 162 168 173 173 175 183 191 196 202 199 237 327 317 301 308 322 316 323 325 324 324 323 323 323 323
151 151 135 120 125 136 145 138 161 199 197 173 170 161 167 173 172 161 148 161 167 168 171 179 193 198 188 334 303 292 305 312 325 323 326 327 326 326 326 326 326 325 324
167 158 155 177 204 201 179 168 161 143 177 165 179 175 182 178 164 165 169 165 165 160 168 189 195 205 228 282 285 296 309 326 325 328 329 330 330 329 327 327 327 326 324
178 200 179 189 217 199 193 171 176 166 173 186 180 149 141 149 159 161 160 165 175 182 178 182 195 208 260 257 285 319 324 325 331 331 333 334 332 330 327 326 326 324 323
191 188 225 7 146 184 184 172 162 176 175 171 160 143 139 147 154 160 165 166 168 167 178 194 200 211 227 285 321 322 325 330 334 335 336 335 332 329 326 325 323 324 323
339 356 103 24 129 154 176 182 175 176 164 150 145 142 142 146 148 155 162 166 166 179 192 195 205 217 271 316 316 322 333 335 336 337 336 335 333 330 327 325 325 325 324
332 32 121 98 125 158 175 181 176 155 143 148 147 138 135 145 158 164 166 170 177 183 187 191 198 229 293 306 324 331 332 335 336 335 336 336 333 330 328 328 326 324 323
88 89 100 109 112 124 143 145 148 145 147 149 143 141 148 162 167 167 177 177 179 186 186 193 220 264 299 319 326 330 333 336 336 336 335 334 333 332 330 327 324 324 326
100 98 100 113 116 111 115 125 121 127 135 137 152 158 163 167 170 176 178 180 184 184 193 213 270 296 313 328 332 332 334 335 334 332 332 336 336 335 331 327 325 326 326
119 110 105 106 113 115 120 128 130 147 151 153 157 160 166 172 177 182 181 183 187 196 217 255 292 315 323 326 328 330 332 334 333 333 335 335 334 332 330 329 328 326 326
158 154 154 151 144 153 162 158 155 158 160 163 166 169 174 179 184 184 186 193 203 224 259 289 301 310 317 322 326 331 334 333 332 332 330 330 330 332 332 330 327 324 322
184 183 179 184 179 174 174 172 163 166 169 170 179 181 186 189 194 200 209 214 230 251 269 286 303 310 312 321 329 332 333 332 331 330 329 328 329 331 330 328 325 321 317